FW2823 Weather Reports


time (UTC)temp
C
wind
direction
speed
KPH
gust
KPH
rain 1hr
cm
rain 24hr
cm
rain mn
cm
humidity
%
barometer
mb
20260506182022 28 293 0.0 3.2 0.00 0.00 0.00 43 1013.9
20260506181016 26 248 3.2 17.7 0.00 0.00 0.00 53 1014.0
20260506180456 27 225 6.4 17.7 0.00 0.00 0.00 47 1013.8
20260506175944 28 248 0.0 11.3 0.00 0.00 0.00 41 1014.5
20260506175431 26 135 3.2 14.5 0.00 0.00 0.00 42 1014.3
20260506174938 27 203 6.4 14.5 0.00 0.00 0.00 39 1014.0
20260506174412 27 225 3.2 12.9 0.00 0.00 0.00 38 1014.2
20260506173904 28 158 3.2 12.9 0.00 0.00 0.00 36 1014.2
20260506172842 29 225 3.2 14.5 0.00 0.00 0.00 36 1014.3
20260506172334 31 293 1.6 9.7 0.00 0.00 0.00 18 1014.3
20260506171823 31 270 0.0 14.5 0.00 0.00 0.00 29 1014.2
20260506170800 31 293 0.0 3.2 0.00 0.00 0.00 33 1014.3
20260506170250 30 45 1.6 3.2 0.00 0.00 0.00 29 1014.5
20260506165744 30 293 0.0 6.4 0.00 0.00 0.00 28 1014.6
20260506165239 29 248 0.0 6.4 0.00 0.00 0.00 27 1014.7
20260506164720 28 90 3.2 11.3 0.00 0.00 0.00 30 1014.7
20260506164209 28 135 4.8 11.3 0.00 0.00 0.00 31 1014.7
20260506163659 29 135 3.2 6.4 0.00 0.00 0.00 28 1015.0
20260506163206 29 248 3.2 11.3 0.00 0.00 0.00 25 1015.1
20260506162645 28 180 1.6 11.3 0.00 0.00 0.00 32 1015.0
20260506162142 28 158 6.4 11.3 0.00 0.00 0.00 29 1015.1
20260506161632 28 113 3.2 9.7 0.00 0.00 0.00 30 1015.1
20260506161121 28 248 3.2 6.4 0.00 0.00 0.00 33 1015.6
20260506160602 28 135 3.2 6.4 0.00 0.00 0.00 33 1015.6
20260506160101 28 248 1.6 9.7 0.00 0.00 0.00 31 1015.7
20260506155538 28 158 3.2 9.7 0.00 0.00 0.00 30 1016.0
20260506155028 27 248 0.0 6.4 0.00 0.00 0.00 31 1016.0
20260506154518 27 248 1.6 11.3 0.00 0.00 0.00 32 1015.9
20260506154011 26 158 4.8 11.3 0.00 0.00 0.00 35 1016.0
20260506153458 27 248 0.0 9.7 0.00 0.00 0.00 36 1016.3
20260506152947 28 225 4.8 9.7 0.00 0.00 0.00 40 1016.3
20260506152438 27 270 1.6 6.4 0.00 0.00 0.00 38 1016.3
20260506151927 27 158 3.2 9.7 0.00 0.00 0.00 36 1016.3
20260506151422 27 135 3.2 9.7 0.00 0.00 0.00 35 1016.6
20260506150908 27 293 1.6 6.4 0.00 0.00 0.00 36 1016.6
20260506150357 26 293 0.0 3.2 0.00 0.00 0.00 46 1016.6
20260506145847 25 315 3.2 3.2 0.00 0.00 0.00 42 1017.3
20260506144829 23 270 0.0 6.4 0.00 0.00 0.00 44 1017.5
20260506144316 22 248 1.6 6.4 0.00 0.00 0.00 45 1017.8
20260506143808 22 158 3.2 6.4 0.00 0.00 0.00 51 1017.8
20260506143256 22 45 0.0 3.2 0.00 0.00 0.00 44 1017.9
20260506142746 22 68 0.0 3.2 0.00 0.00 0.00 47 1017.9
20260506142239 20 248 1.6 3.2 0.00 0.00 0.00 52 1018.0
20260506141738 20 203 0.0 6.4 0.00 0.00 0.00 54 1018.2
20260506141215 20 135 3.2 6.4 0.00 0.00 0.00 53 1018.3
20260506140707 20 135 3.2 6.4 0.00 0.00 0.00 53 1018.5
20260506140201 19 135 3.2 6.4 0.00 0.00 0.00 55 1018.5
20260506135648 19 135 0.0 3.2 0.00 0.00 0.00 54 1018.2
20260506134628 18 113 0.0 6.4 0.00 0.00 0.00 58 1018.6
20260506134115 18 315 0.0 6.4 0.00 0.00 0.00 58 1018.7
20260506133605 17 293 1.6 12.9 0.00 0.00 0.00 58 1018.6
20260506133058 16 45 6.4 12.9 0.00 0.00 0.00 59 1018.9
20260506132544 17 293 0.0 6.4 0.00 0.00 0.00 59 1018.9
20260506132048 16 315 1.6 3.2 0.00 0.00 0.00 55 1018.9
20260506131524 15 90 0.0 3.2 0.00 0.00 0.00 65 1018.9
20260506131014 15 90 1.6 3.2 0.00 0.00 0.00 62 1019.0
20260506130521 14 135 0.0 3.2 0.00 0.00 0.00 66 1018.7
20260506124933 11 45 4.8 9.7 0.00 0.00 0.00 71 1018.8
20260506123917 10 90 3.2 6.4 0.00 0.00 0.00 79 1019.0
20260506122852 10 0 1.6 6.4 0.00 0.00 0.00 74 1018.9
20260506121833 10 23 4.8 11.3 0.00 0.00 0.00 72 1019.0
20260506121325 10 338 4.8 12.9 0.00 0.00 0.00 73 1019.5
20260506120812 7 315 6.4 12.9 0.00 0.00 0.00 72 1019.3
20260506115751 6 315 1.6 6.4 0.00 0.00 0.00 91 1019.4
20260506115242 6 45 6.4 6.4 0.00 0.00 0.00 91 1019.3
20260506114734 6 0 1.6 6.4 0.00 0.00 0.00 91 1019.3
20260506114221 6 338 3.2 6.4 0.00 0.00 0.00 92 1019.5
20260506113201 6 315 1.6 6.4 0.00 0.00 0.00 92 1018.9
20260506112145 6 0 3.2 9.7 0.00 0.00 0.00 91 1019.3
20260506111631 6 293 0.0 9.7 0.00 0.00 0.00 91 1019.0
20260506111125 6 0 3.2 6.4 0.00 0.00 0.00 91 1019.0
20260506110610 5 0 3.2 3.2 0.00 0.00 0.00 92 1019.2
20260506110112 5 135 0.0 6.4 0.00 0.00 0.00 92 1018.8
20260506105552 6 135 1.6 6.4 0.00 0.00 0.00 91 1018.9
20260506105040 6 293 3.2 6.4 0.00 0.00 0.00 91 1018.7
20260506104530 6 90 1.6 9.7 0.00 0.00 0.00 91 1018.9
20260506103510 5 68 0.0 3.2 0.00 0.00 0.00 95 1018.8
20260506103003 5 338 3.2 3.2 0.00 0.00 0.00 94 1018.9
20260506102449 5 315 0.0 3.2 0.00 0.00 0.00 93 1018.6
20260506101939 5 338 1.6 6.4 0.00 0.00 0.00 93 1018.6
20260506101429 5 158 1.6 6.4 0.00 0.00 0.00 92 1018.6
20260506100919 5 0 3.2 6.4 0.00 0.00 0.00 93 1018.3
20260506095348 5 68 1.6 3.2 0.00 0.00 0.00 93 1018.5
20260506094838 6 135 1.6 3.2 0.00 0.00 0.00 92 1018.5
20260506094328 6 0 0.0 3.2 0.00 0.00 0.00 90 1018.5
20260506093821 6 0 0.0 3.2 0.00 0.00 0.00 90 1018.5
20260506092758 6 338 3.2 6.4 0.00 0.00 0.00 88 1018.2
20260506092247 6 23 4.8 6.4 0.00 0.00 0.00 91 1018.3
20260506091738 6 45 1.6 6.4 0.00 0.00 0.00 92 1018.5
20260506091231 6 68 0.0 6.4 0.00 0.00 0.00 92 1018.5
20260506090717 6 293 3.2 6.4 0.00 0.00 0.00 91 1018.5
20260506090212 6 23 3.2 6.4 0.00 0.00 0.00 93 1018.5
20260506085656 5 315 4.8 6.4 0.00 0.00 0.00 93 1018.8
20260506085153 6 23 4.8 6.4 0.00 0.00 0.00 93 1018.9
20260506084639 5 315 3.2 3.2 0.00 0.00 0.00 93 1018.7
20260506084126 6 315 0.0 6.4 0.00 0.00 0.00 93 1019.0
20260506083616 6 0 0.0 6.4 0.00 0.00 0.00 92 1019.0
20260506083107 6 338 3.2 6.4 0.00 0.00 0.00 92 1019.2
20260506082049 6 293 1.6 6.4 0.00 0.00 0.00 89 1019.3
20260506081536 6 315 1.6 3.2 0.00 0.00 0.00 89 1019.4
20260506081026 7 293 1.6 9.7 0.00 0.00 0.00 88 1019.5
20260506080515 7 0 3.2 9.7 0.00 0.00 0.00 87 1019.4
20260506073415 6 315 4.8 6.4 0.00 0.00 0.00 92 1019.6
20260506072907 6 68 3.2 6.4 0.00 0.00 0.00 92 1019.5
20260506072354 7 293 3.2 6.4 0.00 0.00 0.00 91 1019.7
20260506071334 7 315 3.2 6.4 0.00 0.00 0.00 92 1019.6
20260506070316 7 315 0.0 6.4 0.00 0.00 0.00 92 1019.7
20260506061642 8 23 3.2 6.4 0.00 0.00 0.00 86 1020.1
20260506061135 8 68 3.2 6.4 0.00 0.00 0.00 85 1020.2
20260506060119 8 23 3.2 9.7 0.00 0.00 0.00 88 1020.6
20260506051026 8 293 3.2 6.4 0.00 0.00 0.00 89 1020.3
20260506050520 8 0 3.2 6.4 0.00 0.00 0.00 91 1020.4
20260506044436 8 293 1.6 6.4 0.00 0.00 0.00 91 1020.3
20260506043415 9 23 0.0 6.4 0.00 0.00 0.00 89 1020.6
20260506042905 9 45 1.6 6.4 0.00 0.00 0.00 91 1020.4
20260506042408 9 338 3.2 6.4 0.00 0.00 0.00 90 1020.7
20260506041845 10 270 0.0 6.4 0.00 0.00 0.00 90 1020.7
20260506041337 10 248 1.6 6.4 0.00 0.00 0.00 90 1020.7
20260506040825 10 315 3.2 9.7 0.00 0.00 0.00 87 1020.7
20260506040314 10 0 3.2 9.7 0.00 0.00 0.00 88 1020.6
20260506035804 10 293 3.2 6.4 0.00 0.00 0.00 91 1020.8
20260506035255 10 293 1.6 6.4 0.00 0.00 0.00 90 1020.8
20260506034748 10 293 3.2 6.4 0.00 0.00 0.00 91 1021.3
20260506034241 10 68 1.6 3.2 0.00 0.00 0.00 90 1020.8
20260506033724 10 68 1.6 6.4 0.00 0.00 0.00 90 1020.8
20260506033214 10 113 1.6 6.4 0.00 0.00 0.00 88 1021.0
20260506032704 10 0 1.6 6.4 0.00 0.00 0.00 89 1021.0
20260506032156 10 0 3.2 6.4 0.00 0.00 0.00 91 1021.3
20260506031133 10 315 0.0 6.4 0.00 0.00 0.00 91 1021.6
20260506030623 11 23 0.0 6.4 0.00 0.00 0.00 89 1021.5
20260506030114 11 338 1.6 6.4 0.00 0.00 0.00 89 1021.6
20260506025611 11 45 3.2 9.7 0.00 0.00 0.00 88 1021.5
20260506025052 11 293 4.8 9.7 0.00 0.00 0.00 90 1021.6
20260506024545 11 23 3.2 6.4 0.00 0.00 0.00 88 1021.7
20260506023015 11 0 1.6 6.4 0.00 0.00 0.00 90 1022.1
20260506022503 11 315 1.6 6.4 0.00 0.00 0.00 88 1022.0
20260506021951 11 315 1.6 6.4 0.00 0.00 0.00 90 1022.2
20260506021444 11 23 4.8 6.4 0.00 0.00 0.00 88 1022.4
20260506020932 11 0 0.0 6.4 0.00 0.00 0.00 88 1022.2
20260506020451 11 23 3.2 6.4 0.00 0.00 0.00 87 1022.0
20260506015911 11 315 3.2 6.4 0.00 0.00 0.00 90 1022.2
20260506015414 11 338 3.2 6.4 0.00 0.00 0.00 90 1022.1
20260506014851 11 338 3.2 6.4 0.00 0.00 0.00 89 1022.3
20260506014342 11 0 3.2 6.4 0.00 0.00 0.00 89 1022.2
20260506013834 11 23 4.8 6.4 0.00 0.00 0.00 89 1022.0
20260506013320 11 0 3.2 6.4 0.00 0.00 0.00 90 1022.1
20260506012300 11 315 1.6 3.2 0.00 0.00 0.00 90 1022.1
20260506011243 12 338 1.6 6.4 0.00 0.00 0.00 88 1021.7
20260506010730 12 23 3.2 6.4 0.00 0.00 0.00 86 1021.6
20260506005159 12 0 0.0 6.4 0.00 0.00 0.00 87 1021.0
20260506004653 12 23 3.2 6.4 0.00 0.00 0.00 87 1021.1
20260506004139 12 315 4.8 6.4 0.00 0.00 0.00 88 1021.0
20260506003632 13 23 3.2 6.4 0.00 0.00 0.00 86 1021.0
20260506003120 12 293 1.6 6.4 0.00 0.00 0.00 87 1020.8
20260506002610 12 45 3.2 3.2 0.00 0.00 0.00 88 1021.0
20260506001550 12 23 0.0 6.4 0.00 0.00 0.00 88 1020.9
20260506001039 12 338 3.2 3.2 0.00 0.00 0.00 88 1020.8
20260506000019 13 315 0.0 6.4 0.00 0.00 0.00 87 1020.8
20260505235512 12 338 1.6 6.4 0.00 0.00 0.00 87 1020.8
20260505234958 12 23 1.6 3.2 0.00 0.00 0.00 87 1020.9
20260505234447 13 315 0.0 0.0 0.00 0.00 0.00 85 1020.6
20260505233937 13 315 0.0 3.2 0.00 0.00 0.00 84 1020.6
20260505233427 13 315 0.0 6.4 0.00 0.00 0.00 82 1020.3
20260505232921 13 338 0.0 6.4 0.00 0.00 0.00 81 1020.2
20260505232410 13 23 3.2 6.4 0.00 0.00 0.00 81 1020.6
20260505231857 13 338 3.2 6.4 0.00 0.00 0.00 80 1020.4
20260505231346 13 45 3.2 6.4 0.00 0.00 0.00 81 1020.4
20260505230838 13 315 3.2 6.4 0.00 0.00 0.00 82 1020.2
20260505230357 13 23 3.2 6.4 0.00 0.00 0.00 82 1020.2
20260505225432 13 338 3.2 6.4 0.00 0.00 0.00 80 1020.2
20260505224921 13 0 3.2 3.2 0.00 0.00 0.00 82 1020.3
20260505224412 13 293 0.0 3.2 0.00 0.00 0.00 83 1020.0
20260505222330 13 248 0.0 3.2 0.00 0.00 0.00 79 1019.7
20260505221821 14 293 0.0 3.2 0.00 0.00 0.00 77 1019.6
20260505221311 14 45 3.2 6.4 0.00 0.00 0.00 73 1019.4
20260505220804 15 315 1.6 6.4 0.00 0.00 0.00 77 1019.4
20260505220250 14 23 1.6 6.4 0.00 0.00 0.00 76 1019.3
20260505215739 15 338 1.6 3.2 0.00 0.00 0.00 78 1019.4
20260505215239 14 315 1.6 3.2 0.00 0.00 0.00 80 1019.3
20260505214720 15 315 0.0 3.2 0.00 0.00 0.00 78 1019.2
20260505214213 15 315 0.0 3.2 0.00 0.00 0.00 79 1019.2
20260505213700 15 45 3.2 3.2 0.00 0.00 0.00 77 1019.3
20260505213149 15 315 1.6 3.2 0.00 0.00 0.00 82 1019.2
20260505212639 15 315 0.0 3.2 0.00 0.00 0.00 81 1019.2
20260505212130 15 315 0.0 3.2 0.00 0.00 0.00 80 1019.0
20260505211109 16 315 3.2 3.2 0.00 0.00 0.00 77 1019.2
20260505210558 16 315 1.6 3.2 0.00 0.00 0.00 77 1019.0
20260505210109 16 293 3.2 3.2 0.00 0.00 0.00 76 1018.8
20260505205550 16 293 1.6 3.2 0.00 0.00 0.00 76 1018.8
20260505205032 17 315 1.6 3.2 0.00 0.00 0.00 72 1018.8
20260505204518 17 315 3.2 3.2 0.00 0.00 0.00 73 1018.7
20260505204011 17 315 3.2 3.2 0.00 0.00 0.00 68 1018.8
20260505203458 18 293 3.2 3.2 0.00 0.00 0.00 64 1018.8
20260505202947 18 270 1.6 3.2 0.00 0.00 0.00 70 1018.7
20260505202442 20 270 1.6 3.2 0.00 0.00 0.00 67 1018.8
20260505201933 20 270 1.6 3.2 0.00 0.00 0.00 63 1018.6
20260505201417 20 270 0.0 3.2 0.00 0.00 0.00 67 1018.6
20260505200912 21 270 1.6 3.2 0.00 0.00 0.00 60 1018.7
20260505200357 21 270 0.0 3.2 0.00 0.00 0.00 60 1018.6
20260505195850 21 270 0.0 3.2 0.00 0.00 0.00 59 1018.7
20260505195339 21 270 0.0 3.2 0.00 0.00 0.00 57 1018.6
20260505194826 21 270 0.0 3.2 0.00 0.00 0.00 64 1018.7
20260505194326 21 270 1.6 3.2 0.00 0.00 0.00 61 1018.7
20260505193806 22 270 0.0 3.2 0.00 0.00 0.00 63 1018.7
20260505193259 22 270 1.6 3.2 0.00 0.00 0.00 54 1018.6
20260505192747 22 270 0.0 3.2 0.00 0.00 0.00 51 1018.6
20260505192235 22 293 1.6 3.2 0.00 0.00 0.00 53 1018.7
20260505191725 22 293 0.0 3.2 0.00 0.00 0.00 48 1018.6
20260505191228 22 338 1.6 3.2 0.00 0.00 0.00 42 1018.5
20260505190709 23 293 1.6 3.2 0.00 0.00 0.00 48 1018.6
20260505190155 23 293 1.6 3.2 0.00 0.00 0.00 44 1018.6
20260505185646 24 293 3.2 6.4 0.00 0.00 0.00 45 1018.7
20260505184624 27 338 3.2 11.3 0.00 0.00 0.00 31 1018.8
20260505184117 28 23 0.0 9.7 0.00 0.00 0.00 18 1018.7